Regional Weather Roundup
Issued by NWS

Home | Current Version | Previous Version | Graphics & Text | Print | Product List | Glossary On
Versions: 1 2 3 4 5 6 7 8 9 10 11 12 13 14 15 16 17 18 19 20 21 22 23 24 25 26 27 28
000
ASUS45 KCYS 161710
RWRWY

WYOMING REGIONAL WEATHER ROUNDUP
NATIONAL WEATHER SERVICE CHEYENNE WY
1000 AM MST FRI FEB 16 2018

NOTE:  "FAIR" INDICATES FEW OR NO CLOUDS BELOW 12,000 FEET
WITH NO SIGNIFICANT WEATHER AND/OR OBSTRUCTIONS TO VISIBILITY.

WYZ001-161800-
YELLOWSTONE NATIONAL PARK

CITY           SKY/WX    TMP DP  RH WIND       PRES   REMARKS
LK YELLOWSTONE   N/A     13   6  74 VRB5      30.06F WCI   5
W YELLOWSTONE  NOT AVBL

$$
WYZ002>013-054>058-071-098>099-161800-
NORTHERN WYOMING

CITY           SKY/WX    TMP DP  RH WIND       PRES   REMARKS
JACKSON        CLOUDY    21  11  65 S18       30.14F WCI   6
CODY           FAIR      30   9  41 W16G30    29.99F WCI  19
GREYBULL       FAIR       4   0  83 SE5       30.09F WCI  -5
WORLAND        FAIR       5   5 100 CALM      30.08F
SHERIDAN       FAIR      10   4  76 N9        29.98S WCI  -3
BUFFALO        FAIR      22   7  52 SE6       29.93F WCI  14
GILLETTE       FAIR      25  11  55 SW16      29.97F WCI  12
HULETT         FAIR      25  10  54 SW14      30.00F WCI  13
NEWCASTLE      FAIR      19   9  63 SE14G21   30.07F WCI   6

$$
WYZ014>020-022>026-101>103-161800-
CENTRAL WYOMING

CITY           SKY/WX    TMP DP  RH WIND       PRES   REMARKS
BIG PINEY      FAIR      16   8  71 CALM      30.15F
PINEDALE       FAIR      16   7  67 NW5       30.14F WCI   9
DUBOIS           N/A    N/A N/A N/A MISG        N/A
LANDER         FAIR      14   9  80 E6        30.04F WCI   5
RIVERTON       FAIR       9   3  77 SW12      30.04F WCI  -6
CASPER         PTSUNNY   26  13  57 SW22G29   30.05S WCI  12
DOUGLAS        FAIR      31  12  45 W5        30.02F WCI  26

$$
WYZ021-027>030-104>119-161800-
SOUTHERN WYOMING

CITY           SKY/WX    TMP DP  RH WIND       PRES   REMARKS
EVANSTON       FAIR      19  11  70 SW16      30.18F WCI   4
FORT BRIDGER   FAIR      24   8  50 W22G28    30.20F WCI   8
ROCK SPRINGS   FAIR      25   4  40 W28       30.17F WCI   9
DIXON          FAIR     N/A N/A N/A CALM      30.25F
RAWLINS        FAIR      21   9  59 SW18      30.15F WCI   6
SARATOGA       FAIR      19   9  63 S10       30.15F WCI   8
LARAMIE        FAIR      23   8  52 W8        30.07R WCI  14
CHEYENNE       FAIR      21  18  88 SW16G23   30.09F WCI   7
TORRINGTON     FAIR      33  13  43 SW18G26   30.12F WCI  22
PINE BLUFFS    FAIR      27  18  69 SW20      30.15F WCI  13

$$




USA.gov is the U.S. government's official web portal to all federal, state and local government web resources and services.